Location: Holyhead Bay
(53.3667°N, 4.6667°W)
Time: 16:33:04
(UTC+00:00)

H-2A R/B - Visible Passes

Search period start: 16 April 2021 00:00
Search period end: 26 April 2021 00:00
Orbit: 577 x 654 km, 98.5° (Epoch: 15 April)

Date Brightness Start Highest point End Pass type
(mag) Time Alt. Az. Time Alt. Az. Time Alt. Az.
16 Apr 3.9 04:13:21 10° SE 04:17:12 35° ENE 04:21:09 10° N visible
16 Apr 6.0 20:44:09 10° NW 20:44:10 10° NW 20:44:12 10° NW visible
17 Apr 3.3 04:29:04 10° SE 04:33:08 48° ENE 04:37:18 10° N visible
18 Apr 5.6 03:12:11 10° ENE 03:13:57 12° NE 03:15:44 10° NNE visible
19 Apr 5.3 03:27:09 10° E 03:29:45 16° NE 03:32:24 10° NNE visible
20 Apr 5.1 03:42:25 10° ESE 03:45:35 21° ENE 03:48:49 10° N visible
20 Apr 5.4 20:09:53 10° NNW 20:12:47 17° NW 20:15:41 10° W visible
21 Apr 4.6 03:57:52 10° ESE 04:01:27 27° ENE 04:05:07 10° N visible
21 Apr 5.7 20:26:26 10° NNW 20:28:36 13° NW 20:30:47 10° W visible
22 Apr 4.1 04:13:28 10° SE 04:17:21 35° ENE 04:21:20 10° N visible
22 Apr 6.1 20:43:31 10° NW 20:44:23 10° NW 20:45:15 10° WNW visible
24 Apr 5.6 03:12:20 10° ENE 03:14:07 12° NE 03:15:55 10° NNE visible
25 Apr 5.4 03:27:17 10° E 03:29:55 16° NE 03:32:35 10° NNE visible
